Location: *
(39.6167°S, 171.5333°W)
Time: 04:41:12
(UTC+00:00)

Cosmos 2151 - Pass Details

Date: 13 May 2021
Orbit: 580 x 602 km, 82.5° (Epoch: 16 June)

Event Time Altitude Azimuth Distance (km) Brightness Sun altitude
Rises 16:54:36 0° 181° (S) 2,865 6.4 -17.0°
Reaches altitude 10° 16:56:55 10° 174° (S) 1,958 5.6 -16.5°
Maximum altitude 17:01:04 43° 101° (ESE) 858 4.3 -15.7°
Drops below altitude 10° 17:05:09 10° 29° (NNE) 1,943 6.2 -15.0°
Sets 17:07:26 0° 22° (NNE) 2,839 7.0 -14.5°
